Regional Weather Roundup
Issued by NWS

Home | Current Version | Previous Version | Graphics & Text | Print | Product List | Glossary On
Versions: 1 2 3 4 5 6 7 8 9 10 11 12 13 14 15 16 17 18 19 20 21 22 23 24 25 26 27 28 29 30 31 32 33 34 35 36 37 38 39 40 41 42 43 44 45 46 47 48 49 50
000
ASUS45 KBOU 011507
RWRCO

WEATHER ROUNDUP FOR COLORADO
NATIONAL WEATHER SERVICE DENVER/BOULDER CO
900 AM MDT MON SEP 01 2014

NOTE: "FAIR" INDICATES FEW OR NO CLOUDS BELOW 12000 FEET WITH NO
SIGNIFICANT WEATHER AND/OR OBSTRUCTIONS TO VISIBILITY.

COZ001>005-013-030-031-011600-
...NORTHWEST COLORADO...

CITY           SKY/WX    TMP DP  RH WIND       PRES   REMARKS
CRAIG          SUNNY     53  44  71 CALM      30.16S
HAYDEN         SUNNY     52  39  62 SE6       30.17S
MEEKER         SUNNY     51  38  60 CALM      30.17S
MOUNT WERNER   NOT AVBL
STEAMBOAT SPGS SUNNY     45  39  81 CALM      30.19S
WALDEN         MOSUNNY   52  32  46 S12       30.21S
$$

COZ006>008-011-011600-
...WEST CENTRAL VALLEYS...

CITY           SKY/WX    TMP DP  RH WIND       PRES   REMARKS
GRAND JUNCTION SUNNY     63  40  42 SE7       30.08R
MONTROSE       SUNNY     61  39  44 CALM      30.15R
EAGLE          NOT AVBL
RIFLE          SUNNY     53  41  63 CALM      30.14S
DELTA          SUNNY     64  38  39 E7        30.12R
NUCLA          SUNNY     61  34  36 CALM      30.17R
$$

COZ017>023-064>068-011600-
...SOUTHWEST COLORADO...

CITY           SKY/WX    TMP DP  RH WIND       PRES   REMARKS
DURANGO        SUNNY     60  36  40 E3        30.19R
CORTEZ         SUNNY     60  41  49 E3        30.15S
PAGOSA SPRINGS NOT AVBL
TELLURIDE      NOT AVBL
WOLF CREEK PAS SUNNY     46  30  53 S7G17     30.49S
$$

COZ009-010-012-014-032>034-037-058>063-011600-
...CENTRAL COLORADO...

CITY           SKY/WX    TMP DP  RH WIND       PRES   REMARKS
ASPEN          SUNNY     52  35  52 CALM      30.22S
BUENA VISTA    SUNNY     54  33  45 CALM      30.21S
COPPER MTN     SUNNY     45  23  42 W30G40    30.41S
BERTHOUD PASS  FAIR      32  32 100 W28G37    30.41R WCI  18
COTTONWOOD PAS SUNNY     55  30  38 CALM      30.31S
GUNNISON       SUNNY     46  37  71 CALM      30.27S
KREMMLING      SUNNY     46  37  71 CALM      30.24S
LEADVILLE      SUNNY     52  26  36 VRB7      30.31R
MONARCH PASS   SUNNY     39  28  65 W25G32    30.53R
SALIDA         SUNNY     58  43  59 E7        30.26S
SUNLIGHT       SUNNY     46  32  57 CALM      30.39S
WILKERSON PASS NOT AVBL
$$

COZ069>075-011600-
...SAN LUIS VALLEY/SANGRE DE CRISTO MOUNTAINS...

CITY           SKY/WX    TMP DP  RH WIND       PRES   REMARKS
ALAMOSA        SUNNY     59  35  40 S5        30.21S
LA VETA PASS   NOT AVBL
SAGUACHE       NOT AVBL
$$

COZ035-036-038>040-011600-
...NORTHERN COLORADO FRONT RANGE...

CITY           SKY/WX    TMP DP  RH WIND       PRES   REMARKS
DENVER INTL AP MOSUNNY   62  46  55 SE10      30.07F
DMNS CITY PARK   N/A     62  47  58 S5        30.07S
AURORA         MOSUNNY   63  50  63 S10       30.10S
FRONT RANGE AP NOT AVBL
ERIE MUNI ARPT SUNNY     63  47  56 SE5       30.07S
BOULDER MUN AP SUNNY     59  48  67 CALM      30.07S
CENTENNIAL     MOSUNNY   59  47  64 CALM      30.10S
BROOMFIELD     MOSUNNY   63  46  55 SE5       30.09S
FORT COLLINS   SUNNY     59  46  63 CALM      30.08S
LONGMONT       SUNNY     64  49  58 SW3       30.07F
$$

COZ041-046-047-076>085-087-088-011600-
...PIKES PEAK/PALMER DIVIDE AND SOUTHERN FOOTHILLS...

CITY           SKY/WX    TMP DP  RH WIND       PRES   REMARKS
COLO. SPRINGS  MOSUNNY   60  43  53 S15       30.15S
A. F. ACADEMY  SUNNY     58  46  64 SE13      30.14S
ELLICOTT       SUNNY     62  42  47 S14       30.13S
FALCON         SUNNY     58  45  62 S16       30.17S
FORT CARSON    SUNNY     62  47  57 S14       30.13S
LIMON          PTSUNNY   61  43  51 SE7       30.10S
MONUMENT HILL  SUNNY     59  45  58 S15       30.14S
TRINIDAD       SUNNY     62  49  62 E6        30.13S
$$

COZ042>045-048>051-090-091-011600-
...NORTHEAST COLORADO...

CITY           SKY/WX    TMP DP  RH WIND       PRES   REMARKS
GREELEY ARPT   SUNNY     64  46  52 S6        30.07S
AKRON          PTSUNNY   60  48  64 W8        30.07R
BURLINGTON     PTSUNNY   62  48  60 NW3       30.05S
WRAY             N/A     63  53  70 CALM      30.03S
STERLING       MOSUNNY   63  55  77 CALM      30.03S
HOLYOKE        MOSUNNY   63  52  67 W6        30.04R
FORT MORGAN    PTSUNNY   58  50  73 W3        30.07S
$$

COZ086-089-092>099-011600-
...SOUTHEAST COLORADO...

CITY           SKY/WX    TMP DP  RH WIND       PRES   REMARKS
PUEBLO         SUNNY     63  46  54 SE5       30.09R
LA JUNTA       SUNNY     64  48  56 VRB3      30.07R
LAMAR          SUNNY     66  51  58 N3        30.02S
SPRINGFIELD      N/A     66  48  52 N14       30.04S
$$



USA.gov is the U.S. government's official web portal to all federal, state and local government web resources and services.